Flag for Northern Mariana Islands Weather past 2 weeks in Saipan, Northern Mariana Islands

84 °F

Scattered clouds.

Feels Like: 94 °F
Forecast: 75 / 82 °F
Wind: 14 mph from East

Location: Saipan International Airport

Current Time: Nov 26, 2015 at 3:42:56 PM

Latest Report: Nov 26, 2015 at 3:06 PM

Visibility: 10 mi

Pressure: 29.81 "Hg

Humidity: 79%

Dew point: 77 °F

Location of SaipanLocation

Historic Weather in Saipan — Graph


Saipan temperature yesterday

Maximum temperature yesterday: 86 °F (at 1:54 PM)
Minimum temperature yesterday: 78 °F (at 1:54 AM)
Average temperature yesterday: 81 °F

Past Weeks' High & Low Weather Summary

High87 °F (Nov 12, 11:54 AM)100% (Nov 18, 7:17 PM)30.05 "Hg (Nov 18, 7:17 PM)
Low77 °F (Nov 18, 6:01 PM)67% (Nov 17, 11:54 AM)29.81 "Hg (Nov 21, 1:29 PM)
Average82 °F84%29.93 "Hg
* Reported Nov 11 1:54 PM — Nov 26 1:54 PM, Saipan, Weather by CustomWeather, © 2015

Note: Actual official high and low records may vary slightly from our data, if they occured in-between our weather recording intervals... More about our weather records


Saipan weather history for previous 24 hours

Time TempWeatherWind HumidityBarometerVisibility
1:54 PM
Thu, Nov 26
85 °FPassing clouds.13 mph77%29.89 "Hg10 mi
1:04 PM86 °FBroken clouds.14 mph79%29.84 "Hg10 mi
12:54 PM85 °FScattered clouds.12 mph80%29.90 "Hg10 mi
11:54 AM85 °FPassing clouds.16 mph80%29.92 "Hg10 mi
11:21 AM86 °FScattered clouds.15 mph79%29.87 "Hg10 mi
9:54 AM84 °FScattered clouds.15 mph83%29.95 "Hg10 mi
8:54 AM83 °FScattered clouds.13 mph85%29.95 "Hg10 mi
7:54 AM82 °FScattered clouds.9 mph91%29.94 "Hg10 mi
6:54 AM80 °FScattered clouds.9 mph90%29.92 "Hg10 mi
5:54 AM80 °FPartly cloudy.10 mph94%29.90 "Hg10 mi
4:54 AM79 °FMostly cloudy.7 mph97%29.88 "Hg10 mi
3:54 AM79 °FPartly cloudy.8 mph97%29.87 "Hg10 mi
3:34 AM79 °FPartly cloudy.7 mph100%29.82 "Hg10 mi
3:04 AM79 °FMostly cloudy.5 mph100%29.83 "Hg10 mi
2:54 AM79 °FHeavy rain. Fog.7 mph94%29.89 "Hg2 mi
2:09 AM81 °FLight rain. Mostly cloudy.8 mph89%29.84 "Hg10 mi
2:01 AM81 °FOvercast.8 mph94%29.84 "Hg10 mi
1:38 AM81 °FPassing clouds.8 mph94%29.85 "Hg10 mi
1:30 AM81 °FMostly cloudy.7 mph94%29.85 "Hg10 mi
12:54 AM80 °FMostly cloudy.8 mph94%29.92 "Hg10 mi
12:05 AM81 °FMostly cloudy.9 mph89%29.86 "Hg10 mi
11:28 PM
Wed, Nov 25
81 °FPartly cloudy.9 mph94%29.86 "Hg10 mi
10:54 PM80 °FOvercast.8 mph94%29.92 "Hg10 mi
9:54 PM80 °FPartly cloudy.9 mph94%29.93 "Hg10 mi
9:43 PM81 °FPassing clouds.8 mph94%29.87 "Hg10 mi
9:05 PM81 °FPartly cloudy.9 mph89%29.87 "Hg10 mi
8:44 PM81 °FPartly cloudy.9 mph94%29.86 "Hg10 mi
7:54 PM81 °FPassing clouds.8 mph88%29.91 "Hg10 mi
6:54 PM80 °FPassing clouds.7 mph90%29.89 "Hg10 mi
6:09 PM81 °FMostly cloudy.8 mph89%29.82 "Hg10 mi
5:54 PM81 °FMostly cloudy.9 mph88%29.87 "Hg10 mi
4:54 PM82 °FScattered clouds.12 mph85%29.85 "Hg10 mi
3:54 PM84 °FScattered clouds.13 mph80%29.83 "Hg10 mi
Weather by CustomWeather, © 2015

See weather overviewHow to use our weather pages